Regional Weather Roundup
Issued by NWS Goodland, KS

Home | Current Version | Previous Version | Graphics & Text | Print | Product List | Glossary On
Versions: 1 2 3 4 5 6 7 8 9 10 11 12 13 14 15 16 17 18 19 20 21 22 23 24 25 26 27 28 29 30 31 32 33 34 35 36 37 38 39 40 41 42 43 44 45 46 47 48 49 50
000
ASUS43 KGLD 260508
RWRGLD

GOODLAND FORECAST AREA HOURLY WEATHER ROUNDUP
NATIONAL WEATHER SERVICE GOODLAND KS
1100 PM MDT SUN JUN 25 2017

...OFFICIAL OBSERVATIONS...

CITY           SKY/WX    TMP DP  RH WIND       PRES   REMARKS
GOODLAND KS    CLOUDY    58  58 100 S8        30.30S
HILL CITY KS   PTCLDY    57  57 100 S3        30.29S
IMPERIAL NEB   CLEAR     55  52  89 S6        30.28R
MCCOOK NEB     CLEAR     57  56  96 S8        30.26S
AKRON CO       CLEAR     56  53  90 S8        30.32S
BURLINGTON CO  CLOUDY    60  58  92 SE7       30.32S
LIMON CO       CLOUDY    57  55  93 SE8       30.37R
$$

...UNOFFICIAL OBSERVATIONS...

CITY           SKY/WX    TMP DP  RH WIND       PRES   REMARKS
LENORA KS        N/A     56  32  40 MISG        N/A
NORTON KS      CLEAR     55  52  88 S7        30.26S
SHARON SPRINGS   N/A     60  57  91 CALM        N/A
TRENTON NEB      N/A     54  32  43 CALM        N/A
KIT CARSON CO    N/A     63  55  74 MISG        N/A
YUMA CO        FAIR      54  52  94 S5        30.31S
$$




USA.gov is the U.S. government's official web portal to all federal, state and local government web resources and services.